Location: Alfortville
(48.8058°N, 2.4204°E)
Time: 04:42:14
(UTC+00:00)

Cosmos 1980 Rocket - Pass Details

Date: 29 May 2022
Orbit: 827 x 851 km, 71.0° (Epoch: 05 July)

Event Time Altitude Azimuth Distance (km) Brightness Sun altitude
Rises 02:55:47 0° 335° (NNW) 3,421 5.7 -8.1°
Reaches altitude 10° 02:59:41 10° 1° (N) 2,487 5.4 -7.6°
Maximum altitude 03:02:28 14° 30° (NNE) 2,237 5.8 -7.3°
Drops below altitude 10° 03:05:15 10° 60° (ENE) 2,486 6.2 -7.0°
Sets 03:09:07 0° 86° (E) 3,419 6.2 -6.5°
